[[{"header":{"parameterUnit":"m.s-1","parameterCategory":1,"la1":30.2991,"la2":30.254,"lo1":-89.0895,"lo2":-89.0444,"dy":0.0017,"dx":0.0017,"nx":28,"ny":28,"refTime":"2025-07-31T21:00:00:Z","depth":0,"parameterNumber":2,"parameterNumberName":"U-component_of_WINDS"},"data":[0,0,0,0,0,0,0,0,0,0,0,0,0,0,0,0,0,0,0,0,0,0,0,0,0,0,0,0,0,0,0,0,0,0,0,0,0,0,0,0,0,0,0,0,0,0,0,0,0,0,0,0,0,0,0,0,0,0,2.9571,2.9572,0,2.9649,2.965,2.9651,2.963,2.9629,2.9627,2.9626,2.9709,2.9713,2.9716,0,0,0,0,0,0,0,0,0,0,0,0,0,2.9407,2.941,2.9571,2.9572,2.9573,2.9649,2.965,2.9651,2.9631,2.9629,2.9627,2.9625,2.9708,2.9712,2.9717,0,0,0,0,0,0,0,0,0,0,0,0,0,2.9481,2.9411,2.9571,2.9572,2.9573,2.9649,2.965,2.9652,2.9631,2.9629,2.9626,2.9624,2.9706,2.9712,2.9717,2.9798,0,0,2.9734,2.9736,0,0,0,0,0,0,0,0,2.9477,2.9487,2.9571,2.9572,2.9573,2.9628,2.9623,2.9701,2.9632,2.9609,2.9626,2.9623,2.9684,2.9691,2.9711,2.9802,2.9806,2.9734,2.9738,2.974,2.9742,0,0,0,0,0,0,0,2.9472,2.9484,2.9602,2.9572,2.9574,2.9569,2.9577,2.9638,2.9659,2.9611,2.9609,2.9619,2.9684,2.9706,2.9713,2.9807,2.9734,2.9739,2.9743,2.9745,2.9969,2.9972,0,0,0,0,0,0,2.9466,2.948,2.96,2.9605,2.9518,2.9574,2.9583,2.9613,2.9658,2.9663,2.9621,2.9618,2.9698,2.9707,2.9716,2.9814,2.974,2.9745,2.9748,2.9966,2.997,2.9973,0,0,0,0,0,0,2.9462,2.9477,2.9597,2.9542,2.9557,2.958,2.9613,2.9615,2.9637,2.9666,2.967,2.9639,2.9696,2.9708,2.9778,2.9817,2.9748,2.9753,2.9963,2.9967,2.9971,3.0011,0,0,0,0,0,0,2.9458,2.9475,2.9506,2.9543,2.956,2.9657,2.9615,2.9619,2.9646,2.9643,2.9684,2.9688,2.9695,2.977,2.9783,2.9823,2.9757,2.996,2.9965,2.997,3.0006,3.0016,3.0024,0,0,0,0,0,2.9452,2.9515,2.9507,2.9522,2.9598,2.9659,2.9669,2.9675,2.9649,2.9681,2.9699,2.9687,2.981,2.9777,2.9792,2.9834,2.9958,2.9964,2.9969,3.0003,3.0014,3.0024,0,0,0,0,0,0,2.9483,2.9519,2.9512,2.9588,2.962,2.9655,2.9695,2.9687,2.9727,2.9723,2.9729,2.9739,2.981,2.9829,2.9791,2.9915,2.988,2.989,2.99,2.9912,2.992,2.9914,2.9762,0,0,0,0,0,2.9498,2.9543,2.9573,2.9638,2.9654,2.9672,2.9698,2.97,2.9734,2.9748,2.9772,2.9806,2.9852,2.9883,2.9927,3.0009,3.0018,3.0045,3.0054,3.0061,3.007,3.0115,3.0127,2.9992,2.9992,2.9992,0,0,2.9531,2.9557,2.9585,2.9645,2.967,2.9718,2.9683,2.9735,2.9771,2.9756,2.9823,2.9842,2.9881,2.9957,2.9992,2.9975,3.0109,3.0069,3.0074,3.0079,3.0122,3.0135,3.0146,2.9996,2.9995,2.9995,0,0,2.9615,2.9639,2.9695,2.9721,2.9759,2.977,2.9784,2.982,2.9831,2.9899,2.9889,2.9932,3.0011,3.004,3.0064,3.0159,3.015,3.0174,3.022,3.0264,3.0275,3.0284,3.0319,3.0331,3.0182,3.0182,3.0182,0,2.9652,2.9722,2.9726,2.9779,2.9805,2.9793,2.9851,2.9876,2.9927,2.9947,2.9927,3.0027,3.0052,3.0135,3.0158,3.0178,3.0195,3.0169,3.0273,3.0282,3.0291,3.0324,3.0337,3.0185,3.0184,3.0184,3.0184,0,2.9765,2.9814,2.9855,2.9904,2.9936,2.9991,3.0004,3.0035,3.0034,3.0048,3.0117,3.0147,3.0197,3.0217,3.0217,3.03,3.0288,3.0271,3.0236,3.0307,3.0338,3.035,3.0188,3.0187,3.0187,3.0186,0,0,2.9871,2.9921,2.9936,2.9958,2.9999,3.0038,3.0093,3.0141,3.0168,3.0204,3.0251,3.0318,3.0302,3.033,3.0334,3.0372,3.0446,3.035,3.0351,3.0367,3.054,3.0553,3.0567,3.044,3.0442,3.0444,3.0537,0,2.9959,3.0055,3.006,3.0147,3.0193,3.0182,3.023,3.0261,3.0275,3.0317,3.0333,3.0381,3.0355,3.0372,3.041,3.0429,3.0481,3.0422,3.0484,3.0486,3.0475,3.0583,3.0598,3.0684,3.0549,3.0551,3.0552,0,3.0075,3.0113,3.0205,3.0239,3.0259,3.0302,3.0346,3.0386,3.0421,3.0429,3.046,3.0458,3.0515,3.0478,3.0557,3.0517,3.0543,3.0556,3.056,3.0566,3.0524,3.0593,3.0711,3.0724,3.0571,3.057,3.0568,0,3.0144,3.0218,3.0283,3.0302,3.0344,3.0374,3.0393,3.0426,3.0455,3.0494,3.0513,3.0559,3.0584,3.062,3.0631,3.0603,3.071,3.0674,3.0719,3.0719,3.0743,3.0741,3.0867,3.0759,3.0758,3.0758,3.0758,0,3.0242,3.0298,3.0314,3.0354,3.0417,3.0422,3.0485,3.0503,3.0532,3.0575,3.0569,3.061,3.0621,3.0665,3.0673,3.0738,3.075,3.0758,3.076,3.0759,3.0758,3.0776,3.0771,3.0762,3.0761,3.076,3.076,0,3.0329,3.0342,3.0412,3.0445,3.0455,3.0501,3.053,3.0569,3.0582,3.0637,3.065,3.0671,3.0722,3.0736,3.0797,3.0803,3.0879,3.0875,3.0867,3.0867,3.0912,3.0907,3.1054,3.1073,3.0952,3.0953,3.0954,0,3.0391,3.0434,3.0473,3.0501,3.0521,3.0567,3.0596,3.0603,3.0634,3.0677,3.0711,3.076,3.0801,3.0883,3.0904,3.0951,3.0949,3.0997,3.0956,3.0953,3.095,3.0947,3.0952,3.1005,3.1006,3.1007,3.1008,0,3.05,3.0504,3.0546,3.059,3.0624,3.0659,3.0693,3.0717,3.0729,3.0764,3.0815,3.0846,3.0909,3.0958,3.1006,3.1027,3.102,3.102,3.1033,3.1033,3.1026,3.1031,3.0889,3.1017,3.1016,3.1015,3.1015,3.1015,3.0577,3.0615,3.0648,3.0694,3.072,3.0752,3.079,3.0807,3.085,3.09,3.0902,3.0958,3.0993,3.1056,3.1079,3.1123,3.1109,3.1128,3.1133,3.1138,3.1141,3.1019,3.1132,3.1132,3.1132,3.1131,3.1131,0,3.0686,3.0706,3.0749,3.0796,3.0833,3.0822,3.0858,3.089,3.0939,3.0972,3.1011,3.107,3.1119,3.1144,3.1192,3.1223,3.1221,3.1235,3.1233,3.1238,3.1151,3.1135,3.1236,3.1236,3.1236,3.1236,3.1236,3.1236,3.0747,3.081,3.0818,3.0895,3.0915,3.0969,3.0991,3.102,3.1046,3.1112,3.1152,3.1167,3.1197,3.1247,3.1291,3.1298,3.1316,3.1332,3.1337,3.1255,3.1244,3.1234,3.1219,3.1336,3.1336,3.142,3.1421,3.1421]},{"header":{"parameterUnit":"m.s-1","parameterCategory":1,"la1":30.2991,"la2":30.254,"lo1":-89.0895,"lo2":-89.0444,"dy":0.0017,"dx":0.0017,"nx":28,"ny":28,"refTime":"2025-07-31T21:00:00:Z","depth":0,"parameterNumber":3,"parameterNumberName":"V-component_of_WINDS"},"data":[0,0,0,0,0,0,0,0,0,0,0,0,0,0,0,0,0,0,0,0,0,0,0,0,0,0,0,0,0,0,0,0,0,0,0,0,0,0,0,0,0,0,0,0,0,0,0,0,0,0,0,0,0,0,0,0,0,0,1.8304,1.8304,0,1.8316,1.8316,1.8316,1.8311,1.8311,1.8311,1.831,1.8322,1.8322,1.8323,0,0,0,0,0,0,0,0,0,0,0,0,0,1.8275,1.8275,1.8304,1.8304,1.8304,1.8316,1.8316,1.8316,1.8311,1.8311,1.8311,1.831,1.8322,1.8322,1.8323,0,0,0,0,0,0,0,0,0,0,0,0,0,1.8287,1.8275,1.8303,1.8303,1.8303,1.8316,1.8316,1.8316,1.8311,1.8311,1.8311,1.831,1.8321,1.8322,1.8323,1.8337,0,0,1.8326,1.8326,0,0,0,0,0,0,0,0,1.8286,1.8288,1.8303,1.8303,1.8303,1.8312,1.831,1.8323,1.8311,1.8308,1.831,1.831,1.8319,1.832,1.8323,1.8337,1.8338,1.8326,1.8326,1.8327,1.8327,0,0,0,0,0,0,0,1.8285,1.8288,1.8308,1.8303,1.8303,1.8302,1.8303,1.8312,1.8316,1.8308,1.8308,1.831,1.8319,1.8322,1.8323,1.8338,1.8326,1.8326,1.8327,1.8327,1.8363,1.8363,0,0,0,0,0,0,1.8285,1.8287,1.8308,1.8309,1.8294,1.8302,1.8304,1.8309,1.8315,1.8316,1.831,1.8309,1.8321,1.8322,1.8323,1.8339,1.8327,1.8327,1.8328,1.8362,1.8363,1.8363,0,0,0,0,0,0,1.8284,1.8287,1.8307,1.8298,1.83,1.8303,1.8309,1.831,1.8313,1.8317,1.8317,1.8313,1.8321,1.8322,1.8333,1.8339,1.8328,1.8328,1.8362,1.8362,1.8363,1.8371,0,0,0,0,0,0,1.8283,1.8287,1.8292,1.8298,1.8301,1.8317,1.831,1.831,1.8315,1.8314,1.832,1.832,1.832,1.8332,1.8334,1.834,1.8329,1.8361,1.8362,1.8363,1.837,1.8372,1.8373,0,0,0,0,0,1.8282,1.8294,1.8292,1.8295,1.8308,1.8318,1.8319,1.832,1.8315,1.8321,1.8323,1.832,1.8338,1.8333,1.8335,1.8342,1.8361,1.8362,1.8363,1.8369,1.8371,1.8373,0,0,0,0,0,0,1.8288,1.8295,1.8293,1.8307,1.8312,1.8317,1.8324,1.8322,1.8328,1.8327,1.8327,1.8328,1.8339,1.8342,1.8336,1.8355,1.8349,1.835,1.8353,1.8355,1.8356,1.8355,1.833,0,0,0,0,0,1.8291,1.83,1.8304,1.8316,1.8318,1.8321,1.8325,1.8325,1.833,1.8332,1.8335,1.834,1.8346,1.8351,1.8357,1.837,1.8371,1.8376,1.8377,1.8379,1.838,1.8386,1.8388,1.8366,1.8366,1.8366,0,0,1.8298,1.8302,1.8307,1.8317,1.8321,1.8329,1.8322,1.8331,1.8337,1.8333,1.8344,1.8346,1.8351,1.8363,1.8368,1.8365,1.8386,1.838,1.8381,1.8381,1.8387,1.8389,1.8391,1.8367,1.8367,1.8367,0,0,1.8313,1.8317,1.8327,1.8331,1.8337,1.8338,1.834,1.8346,1.8347,1.8358,1.8355,1.8361,1.8373,1.8377,1.838,1.8396,1.8393,1.8398,1.8406,1.8412,1.8414,1.8415,1.842,1.8422,1.8399,1.8399,1.8399,0,1.8319,1.8331,1.8332,1.8341,1.8345,1.8342,1.8352,1.8355,1.8363,1.8366,1.8362,1.8377,1.838,1.8392,1.8396,1.8399,1.8401,1.8397,1.8413,1.8415,1.8416,1.8421,1.8423,1.84,1.84,1.84,1.84,0,1.8339,1.8347,1.8354,1.8362,1.8367,1.8376,1.8377,1.8382,1.8381,1.8383,1.8393,1.8397,1.8404,1.8407,1.8406,1.8419,1.8417,1.8413,1.8407,1.8419,1.8423,1.8425,1.84,1.84,1.84,1.84,0,0,1.8358,1.8366,1.8368,1.8371,1.8378,1.8384,1.8392,1.8399,1.8403,1.8408,1.8415,1.8425,1.8422,1.8426,1.8425,1.8431,1.8442,1.8427,1.8427,1.8429,1.8455,1.8457,1.8459,1.844,1.8441,1.8441,1.8454,0,1.8373,1.8389,1.8389,1.8403,1.841,1.8408,1.8415,1.8419,1.8421,1.8426,1.8428,1.8435,1.843,1.8433,1.8438,1.8439,1.8447,1.8439,1.8446,1.8446,1.8444,1.8462,1.8464,1.8477,1.8456,1.8457,1.8457,0,1.8393,1.8399,1.8413,1.8418,1.8421,1.8428,1.8434,1.844,1.8444,1.8445,1.8449,1.8447,1.8455,1.8449,1.846,1.8454,1.8457,1.8458,1.8459,1.8459,1.8452,1.8462,1.8481,1.8482,1.846,1.8459,1.8459,0,1.8405,1.8416,1.8426,1.8429,1.8435,1.8439,1.8442,1.8446,1.845,1.8455,1.8457,1.8463,1.8467,1.8471,1.8471,1.8467,1.8482,1.8475,1.8482,1.8482,1.8485,1.8484,1.8504,1.8488,1.8488,1.8487,1.8487,0,1.8421,1.843,1.8431,1.8438,1.8447,1.8447,1.8457,1.8459,1.8462,1.8468,1.8466,1.8472,1.8472,1.8478,1.8478,1.8486,1.8488,1.8488,1.8488,1.8488,1.8488,1.849,1.8488,1.8488,1.8488,1.8488,1.8488,0,1.8436,1.8437,1.8448,1.8452,1.8454,1.846,1.8464,1.8469,1.8471,1.8478,1.848,1.8482,1.8488,1.8489,1.8496,1.8496,1.8506,1.8505,1.8505,1.8504,1.851,1.851,1.8531,1.8534,1.8516,1.8516,1.8517,0,1.8446,1.8452,1.8457,1.8461,1.8464,1.8471,1.8475,1.8475,1.8479,1.8484,1.8489,1.8495,1.85,1.851,1.8512,1.8518,1.8516,1.8524,1.8517,1.8517,1.8516,1.8515,1.8516,1.8525,1.8525,1.8525,1.8525,0,1.8463,1.8463,1.8469,1.8475,1.848,1.8485,1.849,1.8493,1.8494,1.8498,1.8505,1.8509,1.8516,1.8522,1.8527,1.8529,1.8527,1.8527,1.8529,1.8529,1.8528,1.8528,1.8507,1.8527,1.8526,1.8526,1.8526,1.8526,1.8475,1.8481,1.8485,1.8492,1.8495,1.8499,1.8504,1.8506,1.8512,1.8518,1.8518,1.8525,1.8528,1.8535,1.8538,1.8543,1.8541,1.8543,1.8544,1.8544,1.8544,1.8527,1.8544,1.8544,1.8544,1.8544,1.8544,0,1.8492,1.8495,1.8501,1.8507,1.8512,1.851,1.8514,1.8519,1.8525,1.8529,1.8534,1.8541,1.8546,1.8549,1.8554,1.8558,1.8557,1.8559,1.8558,1.8559,1.8547,1.8544,1.856,1.856,1.856,1.856,1.856,1.856,1.8501,1.851,1.8511,1.8522,1.8524,1.8531,1.8534,1.8537,1.854,1.8549,1.8553,1.8555,1.8558,1.8563,1.8568,1.8568,1.857,1.8573,1.8573,1.8561,1.856,1.8558,1.8556,1.8573,1.8573,1.8584,1.8584,1.8585]}]]